[Iaude] MPEC B129: 2022 YX [a=1.91,e=0.32,i=14.5,H=21.32]

mpec at marsden.cfa.harvard.edu mpec at marsden.cfa.harvard.edu
Wed Jan 24 09:21:05 EST 2024


M.P.E.C. 2024-B129                             Issued 2024 January 24, 14:19 UT

     The Minor Planet Electronic Circulars contain information on unusual
         minor planets, routine data on comets and natural satellites,
         and occasional editorial announcements.  They are published
    on behalf of Division F of the International Astronomical Union by the
          Minor Planet Center, Smithsonian Astrophysical Observatory,
                          Cambridge, MA 02138, U.S.A.
			  
             Prepared using the Tamkin Foundation Computer Network

                              MPC at CFA.HARVARD.EDU
            URL https://www.minorplanetcenter.net/    ISSN 1523-6714

                                    2022 YX                                     


Additional Observations:
     K22Y00X  C2014 11 20.52028 05 15 35.655+04 40 09.87         21.6 wLEB129F51
     K22Y00X  C2014 11 20.53359 05 15 35.095+04 40 18.60         21.5 wLEB129F51
     K22Y00X  C2014 11 20.54685 05 15 34.535+04 40 27.15         21.4 wLEB129F51
     K22Y00X  C2014 11 20.56021 05 15 33.969+04 40 35.87         21.5 wLEB129F51
     K22Y00X  C2014 11 30.43187905 07 18.155+07 01 51.69         21.70GVEB129F51
     K22Y00X  C2014 11 30.44292005 07 17.378+07 02 03.44         21.38GVEB129F51
     K22Y00X  C2014 12 15.42670204 48 11.631+12 49 21.66         20.60GVEB129F51
     K22Y00X  C2014 12 15.43905604 48 10.479+12 49 42.63         20.77GVEB129F51
     K22Y00X  C2014 12 15.45117904 48 09.392+12 50 02.96         20.53GVEB129F51
     K22Y00X  C2014 12 15.46337204 48 08.262+12 50 23.50         20.72GVEB129F51
     K22Y00X  C2015 01 06.37655904 23 20.916+24 19 28.48         21.33GVEB129F51
     K22Y00X  C2015 01 06.39013904 23 20.324+24 19 54.19         21.46GVEB129F51
     K22Y00X  C2015 01 06.40370504 23 19.705+24 20 20.04         21.69GVEB129F51
     K22Y00X  C2015 01 06.41717304 23 19.122+24 20 45.68         21.02GVEB129F51
     K22Y00X  C2015 01 21.21667504 22 18.837+31 48 57.93         21.84GVEB129F51
     K22Y00X  C2015 01 23.33762604 23 33.315+32 47 23.93         21.45GVEB129F51
     K22Y00X  C2015 01 23.35018604 23 33.726+32 47 44.05         21.15GVEB129F51
     K22Y00X  C2015 01 23.37527504 23 34.573+32 48 24.09         21.65GVEB129F51
     K22Y00X  C2015 01 25.34551004 25 05.060+33 41 08.49         22.24GVEB129F51
     K22Y00X  C2015 01 25.35799504 25 05.600+33 41 28.11         21.98GVEB129F51
     K22Y00X  C2015 02 24.32172505 24 31.031+43 36 10.27         22.22GVEB129F51
     K22Y00X  C2015 02 24.33498105 24 33.387+43 36 19.81         21.89GVEB129F51

Observer details:
F51 Pan-STARRS 1, Haleakala.  Observers B. Gibson, T. Goggia, N. Primak, A.
    Schultz, M. Willman, J. Herman, T. Lowe, P. Minguez, I. Smith.  Measurers
    B. Bolin, K. Chambers, S. Chastel, L. Denneau, H. Flewelling, M. Huber, E.
    Magnier, E. Schunova, R. Wainscoat, C. Waters, T. de Boer, J. Fairlamb, H.
    Gao, C.-C. Lin, Y. Ramanjooloo, R. Weryk.  1.8-m Ritchey-Chretien + CCD.

First and last observations above in comparison with prediction:
Residuals in seconds of arc (or two decimals in degrees), reference and Delta-T
141120 F51 0.09- 0.03-    150224 F51 0.06- 0.04-    MPO741006   -0.00 days

Orbital elements:
2022 YX                                                  Earth MOID = 0.3395 AU
Epoch 2023 Sept. 13.0 TT = JDT 2460200.5                Veres                   
M  85.35700              (2000.0)            P               Q                  
n   0.37232439     Peri.   34.85429     -0.56822580     -0.78390239             
a   1.9136172      Node    91.04841     +0.68658462     -0.61927721             
e   0.3210354      Incl.   14.49377     +0.45356477     -0.04464048             
P   2.65           H   21.32          G   0.15           U   0                  
Residuals in seconds of arc
141120 F51  0.1-  0.1+    221218 H36  0.2+  0.3-    230112 I52  0.0   0.4+
141120 F51  0.0   0.1+    221218 H36  0.2+  0.0     230112 I52  0.0   0.3+
141120 F51  0.0   0.0     221218 H36  0.2+  0.4+    230115 W16  0.4-  0.4-
141120 F51  0.0   0.1-    221219 L01  0.3-  0.2-    230115 W16  0.5+  0.0
141130 F51  0.0   0.1+    221219 L01  0.1-  0.1-    230115 W16  0.1+  0.0
141130 F51  0.0   0.0     221219 L01  0.1-  0.2-    230115 W16  0.1-  0.6-
141215 F51  0.1-  0.2-    221219 L01  0.5-  0.3+    230115 F52  0.0   0.0
141215 F51  0.3-  0.0     221219 H21  0.3-  0.2+    230115 F52  0.0   0.0
141215 F51  0.1+  0.0     221219 H21  0.4-  0.1+    230115 F52  0.0   0.1+
141215 F51  0.1-  0.1+    221219 I52  0.6-  0.5-    230115 D29  0.6-  0.1+
150106 F51  0.1-  0.1+    221219 I52  0.1-  0.1+    230115 D29  0.2-  0.6-
150106 F51  0.1+  0.1-    221219 H21  0.3-  0.1+    230119 D29  0.4+  0.4-
150106 F51  0.1-  0.1-    221219 I52  0.1+  0.3-    230119 D29  0.2-  0.4-
150106 F51  0.0   0.1-    221219 I52  0.1+  0.0     230119 D29  0.2-  0.3+
150121 F51  0.2-  0.1+    221219 H21  0.3-  0.2+    230127 C95  1.0+  0.3+
150123 F51  0.1+  0.2+    221222 I52  0.3-  0.1-    230128 C95  0.1+  0.4+
150123 F51  0.0   0.1+    221222 I52  0.2-  0.2+    230129 G96  0.1-  0.1-
150123 F51  0.2+  0.1+    221222 I52  0.5-  0.0     230129 G96  0.3+  0.1-
150125 F51  0.1+  0.2-    221222 I52  0.0   0.1-    230129 G96  0.2+  0.3-
150125 F51  0.1+  0.0     221222 V06  0.2-  0.5-    230129 G96  0.2-  0.1-
150224 F51  0.1-  0.2+    221222 V06  0.2-  0.1+    230208 G96  0.3-  0.2+
150224 F51  0.4+  0.2+    221222 V06  0.1-  0.0     230208 G96  0.2+  0.3+
221217 G96  0.0   0.2-    221223 G96  0.1-  0.3+    230208 G96  0.1+  0.3+
221217 G96  0.1+  0.1+    221223 G96  0.1-  0.0     230208 G96  0.1-  0.2-
221217 G96  0.2-  0.2-    221223 G96  0.2-  0.4+    230301 V06  0.1+  0.3+
221217 G96  0.3-  0.0     221223 G96  0.0   0.0     230301 V06  0.3-  0.1+
221217 G96  0.1+  0.3-    221229 D29  0.5+  0.0     230301 V06  0.0   0.1+
221217 G96  0.1+  0.3-    221229 D29  1.0-  0.4+    230301 V06  0.3+  0.1-
221217 G96  0.2-  0.3-    230112 I52  0.5+  0.5-
221217 G96  0.2+  0.1+    230112 I52  0.2+  0.1+

Ephemeris:
2022 YX                  a,e,i = 1.91, 0.32, 14                  q = 1.2993
Date    TT    R. A. (2000) Decl.     Delta      r    Elong.  Phase     V
2023 12 25    18 15 03.6 -23 53 44   3.3418  2.3584     1.0     0.4    25.9
...
2024 01 09    18 44 59.3 -24 09 16   3.3612  2.3903     7.7     3.2    26.2
...
2024 01 17    19 00 42.7 -24 09 23   3.3581  2.4060    12.3     5.0    26.3
...
2024 01 23    19 12 21.4 -24 06 06   3.3496  2.4171    15.7     6.3    26.3
2024 01 24    19 14 17.1 -24 05 17   3.3477  2.4189    16.3     6.6    26.4
2024 01 25    19 16 12.5 -24 04 24   3.3456  2.4207    16.9     6.8    26.4
...
2024 01 31    19 27 39.8 -23 57 39   3.3301  2.4311    20.4     8.1    26.4
...
2024 02 08    19 42 41.3 -23 45 01   3.3014  2.4442    25.1     9.9    26.5
...
2024 02 23    20 09 58.1 -23 12 20   3.2233  2.4662    34.0    13.0    26.6

A. U. Tomatic                (C) Copyright 2024 MPC           M.P.E.C. 2024-B129





More information about the Iaude mailing list